Alicante, Spain

9:46 PM CEST on August 17, 2017 (GMT +0200)
Alicante

Weather History for LEAL - February, 2014

Change the Weather History Date:

Thursday, February 13, 2014

  Actual Average Record
Temperature  
Mean Temperature 64 °F -  
Max Temperature 79 °F 62 °F 79 °F (2014)
Min Temperature 48 °F 44 °F 32 °F (2012)
Degree Days  
Heating Degree Days 2    
Growing Degree Days 14 (Base 50)    
Moisture  
Dew Point 49 °F    
Average Humidity 56    
Maximum Humidity 94    
Minimum Humidity 21    
Precipitation  
Precipitation 0.00 in - - ()
Sea Level Pressure  
Sea Level Pressure 30.05 in    
Wind  
Wind Speed 7 mph ()    
Max Wind Speed 18 mph    
Max Gust Speed 24 mph    
Visibility 8.1 miles    
Events      
Averages and records for this station are not official NWS values.
T = Trace of Precipitation, MM = Missing Value Source: Averaged Metar Reports

Daily Weather History Graph

Daily Weather History Graph

Search for Another Location

Airport or City:

Trip Planner

Search our weather history database for the weather conditions in past years. The results will help you decide how hot, cold, wet, or windy it might be!

Date:

Astronomy

Feb. 13, 2014 Rise Set
Actual Time 7:55 AM CET 6:38 PM CET
Civil Twilight 7:28 AM CET 7:05 PM CET
Nautical Twilight 6:56 AM CET 7:36 PM CET
Astronomical Twilight 6:26 AM CET 8:07 PM CET
Moon 5:33 PM CET (2/13) 6:39 AM CET (2/13)
Length of Visible Light 11h 37m
Length of Day
10h 42m
Waxing Gibbous, 98% of the Moon is Illuminated
Feb 13
Waxing Gibbous
Feb 15
Full
Feb 22
Last Quarter
Mar 1
New
Mar 8
First Quarter

Hourly Weather History & Observations

Time (CET) Temp. Dew Point Humidity Pressure Visibility Wind Dir Wind Speed Gust Speed Precip Events Conditions
12:00 AM 53 °F 49 °F 83% 30.12 in - South 6.9 mph - -  
12:00 AM 55.4 °F 51.8 °F 88% 30.09 in - South 6.9 mph - N/A   Clear
12:30 AM 53.6 °F 51.8 °F 94% 30.09 in - Variable 2.3 mph - N/A   Clear
1:00 AM 51 °F 48 °F 87% 30.11 in 12 mi WSW 4.6 mph - -   Clear
1:00 AM 53.6 °F 50.0 °F 88% 30.09 in - WSW 3.5 mph - N/A   Clear
1:30 AM 51.8 °F 50.0 °F 94% 30.09 in - Variable 1.2 mph - N/A   Clear
2:00 AM 49 °F 46 °F 85% 30.09 in - WSW 2.3 mph - -  
2:00 AM 51.8 °F 48.2 °F 88% 30.06 in - Variable 2.3 mph - N/A   Clear
2:30 AM 51.8 °F 48.2 °F 88% 30.06 in - Variable 2.3 mph - N/A   Clear
3:00 AM 52 °F 46 °F 74% 30.08 in - West 10.4 mph - -  
3:00 AM 55.4 °F 48.2 °F 77% 30.06 in - West 10.4 mph - N/A   Clear
3:30 AM 57.2 °F 48.2 °F 72% 30.06 in - WSW 8.1 mph - N/A   Clear
4:00 AM 55 °F 46 °F 62% 30.06 in 12 mi WSW 6.9 mph - -   Overcast
4:00 AM 57.2 °F 48.2 °F 72% 30.04 in - WSW 6.9 mph - N/A   Clear
4:30 AM 57.2 °F 48.2 °F 72% 30.04 in - West 8.1 mph - N/A   Clear
5:00 AM 56 °F 46 °F 59% 30.05 in - WSW 8.1 mph - -  
5:00 AM 59.0 °F 48.2 °F 67% 30.04 in - WSW 8.1 mph - N/A   Clear
5:30 AM 57.2 °F 48.2 °F 72% 30.04 in 6.2 mi West 6.9 mph - N/A   Partly Cloudy
6:00 AM 55 °F 46 °F 63% 30.05 in - SSW 6.9 mph - -  
6:00 AM 57.2 °F 48.2 °F 72% 30.04 in 6.2 mi SSW 6.9 mph - N/A   Partly Cloudy
6:30 AM 57.2 °F 48.2 °F 72% 30.04 in 6.2 mi SW 4.6 mph - N/A   Partly Cloudy
7:00 AM 55 °F 46 °F 64% 30.06 in 16 mi West 5.8 mph - -   Scattered Clouds
7:00 AM 57.2 °F 48.2 °F 72% 30.04 in 6.2 mi West 5.8 mph - N/A   Scattered Clouds
7:30 AM 59.0 °F 48.2 °F 67% 30.04 in 6.2 mi West 5.8 mph - N/A   Mostly Cloudy
8:00 AM 54 °F 47 °F 68% 30.06 in - WSW 5.8 mph - -  
8:00 AM 57.2 °F 48.2 °F 72% 30.06 in 6.2 mi WSW 5.8 mph - N/A   Scattered Clouds
8:30 AM 55.4 °F 48.2 °F 77% 30.06 in 6.2 mi SW 5.8 mph - N/A   Scattered Clouds
9:00 AM 55 °F 48 °F 70% 30.08 in - WSW 4.6 mph - -  
9:00 AM 57.2 °F 50.0 °F 77% 30.06 in 6.2 mi WSW 3.5 mph - N/A   Mostly Cloudy
9:30 AM 59.0 °F 50.0 °F 72% 30.06 in 6.2 mi SSW 5.8 mph - N/A   Mostly Cloudy
10:00 AM 60.8 °F 50.0 °F 68% 30.06 in 6.2 mi SW 5.8 mph - N/A   Mostly Cloudy
10:30 AM 60.8 °F 50.0 °F 68% 30.06 in 6.2 mi WSW 6.9 mph - N/A   Mostly Cloudy
11:00 AM 63 °F 49 °F 51% 30.08 in - SW 5.8 mph - -  
11:00 AM 64.4 °F 51.8 °F 64% 30.06 in 6.2 mi SW 4.6 mph - N/A   Mostly Cloudy
11:30 AM 69.8 °F 50.0 °F 49% 30.06 in - SW 9.2 mph - N/A   Clear
12:00 PM 70 °F 49 °F 35% 30.08 in - WSW 10.4 mph - -  
12:00 PM 71.6 °F 50.0 °F 46% 30.06 in - WSW 9.2 mph - N/A   Clear
12:30 PM 73.4 °F 50.0 °F 44% 30.06 in - SW 10.4 mph - N/A   Clear
1:00 PM 75 °F 50 °F 30% 30.06 in - SSW 11.5 mph - -  
1:00 PM 75.2 °F 51.8 °F 44% 30.06 in - SSW 11.5 mph - N/A   Clear
1:30 PM 78.8 °F 51.8 °F 39% 30.04 in - SSW 13.8 mph - N/A   Clear
2:00 PM 75 °F 50 °F 31% 30.03 in - South 10.4 mph - -  
2:00 PM 77.0 °F 51.8 °F 41% 30.04 in - South 9.2 mph - N/A   Clear
2:30 PM 77.0 °F 53.6 °F 44% 30.01 in - South 9.2 mph - N/A   Clear
3:00 PM 74 °F 53 °F 37% 30.01 in - South 9.2 mph - -  
3:00 PM 75.2 °F 55.4 °F 50% 30.01 in - South 8.1 mph - N/A   Clear
3:30 PM 77.0 °F 53.6 °F 44% 29.98 in - SSW 6.9 mph 19.6 mph N/A   Clear
4:00 PM 76 °F 53 °F 33% 29.98 in - South 9.2 mph - -  
4:00 PM 77.0 °F 53.6 °F 44% 29.98 in - SSW 8.1 mph - N/A   Clear
4:30 PM 80.6 °F 46.4 °F 30% 29.98 in - West 15.0 mph - N/A   Clear
5:00 PM 78 °F 45 °F 21% 30.00 in - West 13.8 mph - -  
5:00 PM 80.6 °F 48.2 °F 32% 29.98 in - West 13.8 mph - N/A   Clear
5:30 PM 78.8 °F 48.2 °F 34% 30.01 in - West 12.7 mph 24.2 mph N/A   Clear
6:00 PM 76 °F 46 °F 24% 30.00 in - West 8.1 mph - -  
6:00 PM 78.8 °F 48.2 °F 34% 29.98 in - West 13.8 mph - N/A   Clear
6:30 PM 69.8 °F 53.6 °F 56% 30.01 in - South 6.9 mph - N/A   Clear
7:00 PM 73 °F 47 °F 28% 30.02 in 12 mi West 12.7 mph - -  
7:00 PM 75.2 °F 48.2 °F 38% 30.01 in - WNW 13.8 mph - N/A   Clear
7:30 PM 75.2 °F 48.2 °F 38% 30.04 in - West 17.3 mph - N/A   Clear
8:00 PM 73.4 °F 48.2 °F 41% 30.04 in - West 17.3 mph - N/A   Clear
8:30 PM 73.4 °F 48.2 °F 41% 30.04 in - WSW 11.5 mph - N/A   Clear
9:00 PM 68 °F 47 °F 36% 30.05 in - West 11.5 mph - -  
9:00 PM 71.6 °F 50.0 °F 46% 30.04 in - West 10.4 mph - N/A   Clear
9:30 PM 71.6 °F 50.0 °F 46% 30.06 in - West 12.7 mph - N/A   Clear
10:00 PM 68 °F 48 °F 38% 30.06 in 12 mi West 15.0 mph - -  
10:00 PM 71.6 °F 50.0 °F 46% 30.06 in - West 15.0 mph - N/A   Clear
10:30 PM 69.8 °F 50.0 °F 49% 30.04 in - WNW 16.1 mph - N/A   Clear
11:00 PM 67 °F 49 °F 41% 30.06 in - West 18.4 mph - -  
11:00 PM 68.0 °F 50.0 °F 52% 30.04 in - WNW 17.3 mph - N/A   Clear
11:30 PM 69.8 °F 50.0 °F 49% 30.06 in - West 11.5 mph - N/A   Clear